[[{"header":{"parameterUnit":"m.s-1","parameterCategory":1,"la1":30.2991,"la2":30.254,"lo1":-89.0895,"lo2":-89.0444,"dy":0.0017,"dx":0.0017,"nx":28,"ny":28,"refTime":"2024-09-25T21:00:00:Z","depth":0,"parameterNumber":2,"parameterNumberName":"U-component_of_WINDS"},"data":[0,0,0,0,0,0,0,0,0,0,0,0,0,0,0,0,0,0,0,0,0,0,0,0,0,0,0,0,0,0,0,0,0,0,0,0,0,0,0,0,0,0,0,0,0,0,0,0,0,0,0,0,0,0,0,0,0,0,-1.2238,-1.2238,0,-1.2226,-1.2225,-1.2225,-1.2188,-1.2187,-1.2186,-1.2185,-1.2173,-1.2174,-1.2174,0,0,0,0,0,0,0,0,0,0,0,0,0,-1.223,-1.223,-1.2238,-1.2238,-1.2238,-1.2226,-1.2225,-1.2225,-1.2188,-1.2187,-1.2186,-1.2185,-1.2173,-1.2174,-1.2174,0,0,0,0,0,0,0,0,0,0,0,0,0,-1.2227,-1.223,-1.2238,-1.2217,-1.2216,-1.2226,-1.2225,-1.2225,-1.2188,-1.2187,-1.2186,-1.2185,-1.2173,-1.2174,-1.2174,-1.2203,0,0,-1.2176,-1.2177,0,0,0,0,0,0,0,0,-1.2227,-1.2227,-1.2221,-1.2219,-1.2217,-1.2207,-1.2218,-1.2218,-1.2189,-1.2199,-1.2185,-1.2184,-1.2186,-1.2185,-1.2186,-1.2203,-1.2202,-1.2177,-1.2177,-1.2177,-1.2177,0,0,0,0,0,0,0,-1.2228,-1.2228,-1.2233,-1.2221,-1.2218,-1.2209,-1.2208,-1.2218,-1.2199,-1.2198,-1.2195,-1.2194,-1.2184,-1.2185,-1.2185,-1.2202,-1.2177,-1.2177,-1.2178,-1.2178,-1.2242,-1.2244,0,0,0,0,0,0,-1.2231,-1.2228,-1.2233,-1.2233,-1.2219,-1.221,-1.2208,-1.2211,-1.2199,-1.2196,-1.2195,-1.2192,-1.2185,-1.2184,-1.2185,-1.2217,-1.2177,-1.2178,-1.2178,-1.2241,-1.2243,-1.2244,0,0,0,0,0,0,-1.2231,-1.2231,-1.2234,-1.223,-1.2229,-1.2212,-1.2215,-1.2212,-1.2212,-1.2197,-1.2194,-1.2199,-1.2184,-1.2184,-1.2199,-1.2216,-1.2178,-1.2179,-1.224,-1.2242,-1.2243,-1.2283,0,0,0,0,0,0,-1.223,-1.2232,-1.2242,-1.223,-1.223,-1.2248,-1.2217,-1.2212,-1.2214,-1.221,-1.22,-1.2197,-1.2183,-1.2198,-1.22,-1.2216,-1.2179,-1.2238,-1.2241,-1.2243,-1.228,-1.2286,-1.2291,0,0,0,0,0,-1.223,-1.2254,-1.2243,-1.2244,-1.2242,-1.2249,-1.2249,-1.2232,-1.2215,-1.2226,-1.2216,-1.2197,-1.2214,-1.22,-1.2201,-1.2219,-1.2237,-1.224,-1.2243,-1.2277,-1.2285,-1.2291,0,0,0,0,0,0,-1.2268,-1.2252,-1.2239,-1.226,-1.2256,-1.2243,-1.2255,-1.224,-1.2241,-1.2237,-1.2216,-1.2214,-1.2233,-1.2227,-1.2212,-1.2246,-1.2223,-1.2226,-1.2248,-1.2255,-1.2261,-1.2261,-1.218,0,0,0,0,0,-1.2279,-1.2285,-1.2271,-1.229,-1.2289,-1.2273,-1.2275,-1.2262,-1.2258,-1.2256,-1.2247,-1.2244,-1.2249,-1.2252,-1.2255,-1.228,-1.2277,-1.2292,-1.2298,-1.2302,-1.2305,-1.2317,-1.2324,-1.2254,-1.2254,-1.2254,0,0,-1.2301,-1.2293,-1.2298,-1.2298,-1.2293,-1.2301,-1.2272,-1.2281,-1.2286,-1.2258,-1.2271,-1.2265,-1.226,-1.228,-1.2288,-1.2276,-1.2324,-1.2306,-1.231,-1.231,-1.2321,-1.2328,-1.2334,-1.2256,-1.2256,-1.2255,0,0,-1.2344,-1.2339,-1.2354,-1.2351,-1.2345,-1.2334,-1.2338,-1.2328,-1.2322,-1.2336,-1.2314,-1.2321,-1.2329,-1.2326,-1.2326,-1.237,-1.2353,-1.2372,-1.24,-1.2413,-1.2418,-1.2423,-1.2438,-1.2444,-1.2375,-1.2375,-1.2375,0,-1.2372,-1.2382,-1.2364,-1.2375,-1.2375,-1.235,-1.2365,-1.2363,-1.2359,-1.236,-1.2346,-1.2356,-1.2351,-1.237,-1.2381,-1.2382,-1.2385,-1.2372,-1.2419,-1.2424,-1.2428,-1.2442,-1.2448,-1.2377,-1.2377,-1.2377,-1.2377,0,-1.2417,-1.2424,-1.2438,-1.2434,-1.2436,-1.2449,-1.2433,-1.2438,-1.2425,-1.2416,-1.243,-1.2424,-1.2425,-1.2429,-1.2417,-1.2446,-1.2439,-1.2423,-1.2398,-1.2437,-1.245,-1.2455,-1.2381,-1.238,-1.2379,-1.2379,0,0,-1.2481,-1.2469,-1.2474,-1.2472,-1.2464,-1.247,-1.2482,-1.2484,-1.2488,-1.2486,-1.2496,-1.2504,-1.2489,-1.2489,-1.2477,-1.2488,-1.2522,-1.247,-1.2469,-1.2479,-1.2554,-1.2565,-1.2571,-1.2512,-1.2513,-1.2513,-1.2554,0,-1.2522,-1.2542,-1.2526,-1.2549,-1.2556,-1.2533,-1.2544,-1.254,-1.2533,-1.2537,-1.2529,-1.2535,-1.2515,-1.2515,-1.2525,-1.2516,-1.2537,-1.2513,-1.252,-1.252,-1.252,-1.2578,-1.259,-1.2628,-1.2559,-1.256,-1.256,0,-1.2571,-1.2572,-1.2595,-1.2586,-1.2588,-1.2598,-1.2599,-1.2604,-1.26,-1.2594,-1.2594,-1.2579,-1.2591,-1.2568,-1.2584,-1.2568,-1.2571,-1.2567,-1.2568,-1.2567,-1.2542,-1.2577,-1.264,-1.2646,-1.2568,-1.2568,-1.2567,0,-1.2615,-1.2622,-1.2636,-1.2636,-1.2626,-1.2634,-1.263,-1.2625,-1.2627,-1.2628,-1.2629,-1.2631,-1.2632,-1.2635,-1.2621,-1.2606,-1.2638,-1.2615,-1.2633,-1.2633,-1.2639,-1.2639,-1.2702,-1.2644,-1.2643,-1.2643,-1.2643,0,-1.2661,-1.2675,-1.2656,-1.2665,-1.2681,-1.2664,-1.2681,-1.2675,-1.2671,-1.2678,-1.2659,-1.2667,-1.2649,-1.2655,-1.2644,-1.2659,-1.266,-1.2655,-1.2651,-1.2655,-1.2656,-1.2655,-1.2652,-1.2645,-1.2645,-1.2644,-1.2644,0,-1.2711,-1.2699,-1.2713,-1.2704,-1.2702,-1.2714,-1.2706,-1.2714,-1.2705,-1.2715,-1.2717,-1.2703,-1.2709,-1.2696,-1.27,-1.2693,-1.2714,-1.2707,-1.2715,-1.2712,-1.2731,-1.2729,-1.2795,-1.2802,-1.274,-1.2741,-1.2741,0,-1.274,-1.2751,-1.2743,-1.2747,-1.2744,-1.2751,-1.2753,-1.2737,-1.274,-1.2737,-1.2746,-1.275,-1.2753,-1.2763,-1.2754,-1.2758,-1.275,-1.2773,-1.275,-1.2754,-1.2749,-1.2748,-1.2749,-1.2777,-1.2778,-1.2778,-1.2779,0,-1.2793,-1.2787,-1.279,-1.2792,-1.2796,-1.2797,-1.2796,-1.28,-1.2784,-1.2788,-1.2794,-1.2796,-1.2801,-1.2805,-1.2807,-1.2803,-1.2788,-1.2787,-1.2791,-1.2794,-1.2798,-1.2795,-1.2726,-1.2785,-1.2784,-1.2784,-1.2783,-1.2783,-1.2833,-1.2841,-1.2837,-1.2842,-1.284,-1.2841,-1.2848,-1.2841,-1.2845,-1.2847,-1.2839,-1.2847,-1.2843,-1.2843,-1.2842,-1.2848,-1.2838,-1.2844,-1.2845,-1.2847,-1.2849,-1.2798,-1.2848,-1.2848,-1.2848,-1.2848,-1.2848,0,-1.2883,-1.288,-1.2885,-1.2885,-1.2889,-1.2876,-1.2875,-1.2879,-1.2886,-1.2885,-1.2888,-1.2895,-1.29,-1.2891,-1.2895,-1.2901,-1.2895,-1.2903,-1.2901,-1.2901,-1.2859,-1.2854,-1.2908,-1.2908,-1.2908,-1.2908,-1.2908,-1.2908,-1.291,-1.2924,-1.2917,-1.293,-1.2927,-1.2934,-1.2935,-1.2935,-1.2934,-1.2943,-1.2946,-1.2941,-1.2937,-1.294,-1.2944,-1.2942,-1.2943,-1.2954,-1.2949,-1.2909,-1.2904,-1.2898,-1.2893,-1.2955,-1.2955,-1.299,-1.299,-1.299]},{"header":{"parameterUnit":"m.s-1","parameterCategory":1,"la1":30.2991,"la2":30.254,"lo1":-89.0895,"lo2":-89.0444,"dy":0.0017,"dx":0.0017,"nx":28,"ny":28,"refTime":"2024-09-25T21:00:00:Z","depth":0,"parameterNumber":3,"parameterNumberName":"V-component_of_WINDS"},"data":[0,0,0,0,0,0,0,0,0,0,0,0,0,0,0,0,0,0,0,0,0,0,0,0,0,0,0,0,0,0,0,0,0,0,0,0,0,0,0,0,0,0,0,0,0,0,0,0,0,0,0,0,0,0,0,0,0,0,-0.5737,-0.5738,0,-0.579,-0.5791,-0.5792,-0.5794,-0.5793,-0.5792,-0.5792,-0.5847,-0.5849,-0.5851,0,0,0,0,0,0,0,0,0,0,0,0,0,-0.5638,-0.564,-0.5737,-0.5738,-0.5739,-0.579,-0.5791,-0.5792,-0.5794,-0.5793,-0.5792,-0.5791,-0.5847,-0.5849,-0.5851,0,0,0,0,0,0,0,0,0,0,0,0,0,-0.5685,-0.5641,-0.5737,-0.5746,-0.5747,-0.579,-0.5791,-0.5792,-0.5794,-0.5793,-0.5792,-0.5791,-0.5846,-0.5849,-0.5852,-0.589,0,0,-0.5861,-0.5863,0,0,0,0,0,0,0,0,-0.5683,-0.5689,-0.5744,-0.5745,-0.5747,-0.5784,-0.5777,-0.5825,-0.5794,-0.5776,-0.5792,-0.5791,-0.5827,-0.5832,-0.5844,-0.5893,-0.5895,-0.5862,-0.5864,-0.5865,-0.5866,0,0,0,0,0,0,0,-0.5679,-0.5687,-0.5758,-0.5745,-0.5746,-0.5747,-0.5753,-0.5786,-0.5806,-0.5778,-0.5778,-0.5784,-0.5828,-0.5841,-0.5845,-0.5896,-0.5862,-0.5864,-0.5866,-0.5867,-0.598,-0.5981,0,0,0,0,0,0,-0.5674,-0.5684,-0.5757,-0.576,-0.5712,-0.575,-0.5756,-0.5773,-0.5806,-0.581,-0.5785,-0.5784,-0.5836,-0.5842,-0.5847,-0.5895,-0.5865,-0.5868,-0.587,-0.5979,-0.598,-0.5981,0,0,0,0,0,0,-0.5672,-0.5681,-0.5755,-0.5722,-0.5732,-0.5753,-0.5772,-0.5775,-0.5788,-0.5812,-0.5815,-0.5794,-0.5835,-0.5843,-0.588,-0.5897,-0.5869,-0.5872,-0.5977,-0.5979,-0.5981,-0.5991,0,0,0,0,0,0,-0.5669,-0.568,-0.5695,-0.5722,-0.5733,-0.5786,-0.5773,-0.5777,-0.5793,-0.5793,-0.5822,-0.5825,-0.5835,-0.5875,-0.5883,-0.5901,-0.5874,-0.5976,-0.5978,-0.598,-0.5989,-0.5992,-0.5995,0,0,0,0,0,-0.5666,-0.5696,-0.5696,-0.5704,-0.5752,-0.5787,-0.5793,-0.5804,-0.5795,-0.581,-0.5825,-0.5824,-0.5893,-0.5879,-0.5887,-0.5907,-0.5975,-0.5977,-0.598,-0.5987,-0.5992,-0.5995,0,0,0,0,0,0,-0.567,-0.5699,-0.57,-0.5739,-0.5761,-0.5787,-0.5807,-0.5808,-0.5833,-0.5831,-0.5843,-0.585,-0.5886,-0.59,-0.5883,-0.5946,-0.5933,-0.5937,-0.5936,-0.594,-0.5943,-0.594,-0.5877,0,0,0,0,0,-0.5675,-0.5701,-0.5725,-0.5758,-0.5769,-0.5786,-0.5801,-0.5807,-0.583,-0.5839,-0.5857,-0.5879,-0.5906,-0.5924,-0.5949,-0.599,-0.5997,-0.6008,-0.6011,-0.6014,-0.6018,-0.6041,-0.6046,-0.5989,-0.5989,-0.5989,0,0,-0.5687,-0.5706,-0.5722,-0.5759,-0.5777,-0.5803,-0.5793,-0.5822,-0.5842,-0.5844,-0.588,-0.5893,-0.5919,-0.5958,-0.5976,-0.5971,-0.6034,-0.6017,-0.6019,-0.6021,-0.6044,-0.6049,-0.6054,-0.5991,-0.5991,-0.5991,0,0,-0.5723,-0.5739,-0.5769,-0.5786,-0.5812,-0.5823,-0.583,-0.5856,-0.5865,-0.5901,-0.5903,-0.5927,-0.5973,-0.5991,-0.6007,-0.6048,-0.6049,-0.6056,-0.6074,-0.6096,-0.6101,-0.6105,-0.612,-0.6126,-0.606,-0.606,-0.606,0,-0.5734,-0.5774,-0.5784,-0.5812,-0.5829,-0.5831,-0.5861,-0.5877,-0.591,-0.5922,-0.5915,-0.5972,-0.599,-0.6033,-0.6043,-0.6055,-0.6064,-0.6054,-0.6099,-0.6103,-0.6107,-0.6122,-0.6128,-0.606,-0.606,-0.606,-0.606,0,-0.5788,-0.5815,-0.5836,-0.5867,-0.5886,-0.5915,-0.5929,-0.5947,-0.5951,-0.5963,-0.6,-0.602,-0.6051,-0.6061,-0.6066,-0.6106,-0.6101,-0.6096,-0.6084,-0.6113,-0.6128,-0.6133,-0.6062,-0.6061,-0.6061,-0.6061,0,0,-0.5829,-0.5864,-0.5872,-0.5886,-0.5915,-0.5937,-0.5965,-0.5995,-0.601,-0.6032,-0.6058,-0.6096,-0.6091,-0.6109,-0.6115,-0.6134,-0.6167,-0.6127,-0.6128,-0.6135,-0.6213,-0.6217,-0.6224,-0.6167,-0.6168,-0.6169,-0.6211,0,-0.5868,-0.592,-0.5929,-0.5974,-0.6,-0.6002,-0.6027,-0.6047,-0.6059,-0.6083,-0.6095,-0.6123,-0.6114,-0.6125,-0.6144,-0.6159,-0.6183,-0.6156,-0.6191,-0.6192,-0.6186,-0.6231,-0.6236,-0.6275,-0.6217,-0.6218,-0.6218,0,-0.5921,-0.5945,-0.5993,-0.6017,-0.6029,-0.6051,-0.6079,-0.6101,-0.6124,-0.6131,-0.615,-0.6154,-0.6185,-0.617,-0.6212,-0.6194,-0.6209,-0.6218,-0.622,-0.6225,-0.6208,-0.6238,-0.6287,-0.6294,-0.6227,-0.6226,-0.6226,0,-0.5947,-0.5991,-0.6025,-0.6037,-0.6067,-0.6083,-0.6096,-0.6118,-0.6135,-0.6159,-0.617,-0.6197,-0.6212,-0.6233,-0.6244,-0.6233,-0.6287,-0.6273,-0.6294,-0.6294,-0.6307,-0.6306,-0.636,-0.6314,-0.6314,-0.6314,-0.6314,0,-0.5991,-0.6021,-0.6038,-0.6059,-0.6092,-0.6102,-0.6134,-0.6147,-0.6166,-0.6191,-0.6193,-0.6216,-0.6229,-0.6253,-0.6262,-0.6297,-0.6303,-0.631,-0.6312,-0.6311,-0.631,-0.6322,-0.632,-0.6315,-0.6315,-0.6315,-0.6314,0,-0.6027,-0.6039,-0.6077,-0.6102,-0.6108,-0.6132,-0.6153,-0.6174,-0.6185,-0.6215,-0.6223,-0.624,-0.6269,-0.6282,-0.6318,-0.6324,-0.6363,-0.6363,-0.6356,-0.6357,-0.6378,-0.6376,-0.6443,-0.6452,-0.6398,-0.6399,-0.6399,0,-0.6055,-0.6077,-0.6104,-0.612,-0.6134,-0.616,-0.6177,-0.6187,-0.6205,-0.6232,-0.625,-0.6279,-0.6303,-0.6349,-0.6365,-0.6392,-0.6393,-0.6415,-0.6398,-0.6395,-0.6395,-0.6394,-0.6397,-0.6418,-0.6419,-0.6419,-0.642,0,-0.6103,-0.6108,-0.6132,-0.6159,-0.6179,-0.6201,-0.6222,-0.6235,-0.6248,-0.6268,-0.6297,-0.6316,-0.6352,-0.6381,-0.6409,-0.6423,-0.6424,-0.6424,-0.6431,-0.643,-0.6426,-0.6429,-0.6366,-0.6423,-0.6423,-0.6423,-0.6422,-0.6422,-0.6137,-0.6157,-0.6179,-0.6206,-0.6223,-0.6242,-0.6263,-0.6276,-0.6301,-0.6331,-0.6335,-0.6367,-0.6389,-0.6427,-0.6442,-0.6467,-0.6462,-0.6471,-0.6474,-0.6476,-0.6478,-0.642,-0.6472,-0.6472,-0.6472,-0.6472,-0.6471,0,-0.6186,-0.62,-0.6225,-0.6254,-0.6275,-0.6273,-0.6296,-0.6314,-0.6342,-0.6362,-0.6385,-0.6419,-0.6447,-0.6465,-0.6493,-0.651,-0.6511,-0.6517,-0.6517,-0.652,-0.648,-0.6472,-0.6516,-0.6516,-0.6516,-0.6516,-0.6516,-0.6516,-0.6214,-0.6249,-0.6256,-0.6299,-0.6313,-0.6344,-0.6357,-0.6375,-0.6392,-0.6429,-0.6452,-0.6463,-0.6483,-0.6512,-0.6538,-0.6542,-0.6553,-0.656,-0.6564,-0.6527,-0.6523,-0.6518,-0.6511,-0.6561,-0.6562,-0.6602,-0.6602,-0.6602]}]]